NIMBUS 2 DEB, 25825

Orbit data source: Space-Track

NIMBUS 2 DEB, 25825 is space debris in SSO originally from a launch on Sun, 15 May 1966 UTC launched from the Air Force Western Test Range (AFWTR). Debris objects in space refer to the collection of defunct objects orbiting the Earth. Examples of debris include non-operational satellites, rocket bodies, and fragments generated from explosions, collisions, or faulty payload assembly.

Loading next visibility...
Identifier
25825, 1966-040H
Orbit
SSO
Country
Flag of USUS
Related business
Manufacturer
Unknown
Mission
Spacecraft
Bus & Motor
Unknown
Mass
Unknown
Launch date (UTC)
1966-05-15 (60 years ago)
Launch vehicle
Unknown
Launch site
Air Force Western Test Range (AFWTR)
Object type
Payload
Rocket body
Debris
Shape & HBR
Unknown shape, 0.1 m
Radar Cross Section
Small (<0.1 m²)

Expand to show TLE details & history
Last TLE update: 8 hours ago

TLE from 8 hours ago
0 NIMBUS 2 DEB
1 25825U 66040H   26128.16801455  .00002487  00000-0  28702-2 0  9999
2 25825 100.3254 205.4112 0044105 265.4118 150.7515 13.69958901931801
Epoch: 2026-05-08T04:01Z
TLE epoch observation values (Epoch: 2026-05-08T04:01:56.457Z)
Latitude
55.13533°
Longitude
-96.15707°
Altitude
1,037.176 km
Speed
7.324 km/s
True Right ascension
12h 41m 19s
True Declination
54° 58' 48"
Sunlit
Object was in daylight at epoch
Visualization orbit readout
Latitude
Unknown
Longitude
Unknown
Altitude
Unknown
Speed
Unknown
Apparent Right ascension
Unknown
Apparent Declination
Unknown
Sunlit
N/A
Visualization observer readout
Local Sidereal Time
20:17:47
Azimuth
Unknown
Elevation
Unknown
Doppler factor
Unknown
Orbital elements
Apogee altitude
1,029.555 km
Perigee altitude
964.499 km
Semi-major axis
7,375.164 km
Eccentricity
0.00441
Inclination
100.3254°
RAAN
205.4112°
Arg. of periapsis
265.4118°
True anomaly
150.99726°
Mean anomaly
150.7515°
Eccentric anomaly
150.8745°
Mean motion
3.42678 °/min
Orbital period
105.06 mins
BSTAR
0.0028702
Loading maneuver chart data...
Computing Atmospheric mass density...
Loading historical data...
Loading historical data...
Loading historical data...
Loading historical data...
Loading historical data...
Loading historical data...
Loading historical data...

Documentation

Showing up to 5 results
|